Regional Weather Roundup
Issued by NWS State College, PA

Home | Current Version | Previous Version | Text Only | Print | Product List | Glossary Off
Versions: 1 2 3 4 5 6 7 8 9 10 11 12 13 14 15 16 17 18 19 20 21 22 23 24 25 26 27 28 29 30 31 32 33 34 35 36 37 38 39 40 41 42 43 44 45 46 47 48 49 50

000
ASUS41 KCTP 040303
RWRCTP

REGIONAL WEATHER ROUNDUP
NATIONAL WEATHER SERVICE STATE COLLEGE PA
1100 PM EDT THU SEP 03 2015

Note: "fair" indicates few or no clouds below 12,000 feet with no
significant weather and/or obstructions to visibility.

* = STATION THAT DOES NOT REPORT PRECIPITATION /E.G. RAIN...SNOW...ETC/
    THUNDER OR FOG.

PAZ002>004-007>009-013>016-020>023-029>032-040400-
WESTERN PENNSYLVANIA

CITY           SKY/WX    TMP DP  RH WIND       PRES   REMARKS
ERIE           PTCLDY    73  69  87 S3        29.96S FOG
MEADVILLE      CLEAR     70  66  87 E3        30.00S FOG
FRANKLIN*      CLEAR     68  64  88 N3        30.01F
NEW CASTLE     FAIR      70  69  96 CALM      30.00R
BEAVER COUNTY  NOT AVBL
BUTLER*        MOCLDY    72  66  83 CALM      30.00R
PITTSBURGH INT MOCLDY    72  65  78 NW5       29.98S
PITTSBURGH     MOCLDY    72  63  73 W7        29.98R
INDIANA*       CLEAR     72  68  88 CALM      30.02R
LATROBE        NOT AVBL
WASHINGTON CO* MOCLDY    66  64  94 CALM      30.00S
$$

PAZ004>006-010>012-017>019-024>028-033>037-041-042-045-046-049>053-040400-
CENTRAL PENNSYLVANIA

CITY           SKY/WX    TMP DP  RH WIND       PRES   REMARKS
BRADFORD       PTCLDY    66  63  90 CALM      30.03R
DUBOIS         MOCLDY    65  61  87 W3        30.00S
CLEARFIELD     MOCLDY    68  64  87 N5        30.00R
JOHNSTOWN      CLOUDY    72  65  78 SW6       30.03S
ALTOONA        MOCLDY    71  65  81 SW3       29.99S
STATE COLLEGE  MOCLDY    72  65  78 CALM      29.97S
WILLIAMSPORT   MOCLDY    71  68  90 CALM      29.92F
SELINSGROVE      N/A     71  69  93 N3        29.92S FOG
FT INDIANTOWN  CLEAR     73  67  82 CALM      29.91S
CAPITAL CITY   PTCLDY    76  67  73 SW3       29.91R
HARRISBURG     MOCLDY    79  68  69 CALM      29.89F
YORK           MOCLDY    69  66  90 CALM      29.91F
$$

PAZ038>040-043-044-047-048-054-055-060>062-067>071-040400-
EASTERN PENNSYLVANIA

CITY           SKY/WX    TMP DP  RH WIND       PRES   REMARKS
SCRANTON       PTCLDY    73  66  78 E6        29.95S
MOUNT POCONO   PTCLDY    71  64  78 N7        29.99F
ALLENTOWN      PTCLDY    73  66  78 CALM      29.92R
QUAKERTOWN*    MOCLDY    75  66  73 CALM      29.92S
READING        PTCLDY    76  67  73 CALM      29.90S
LANCASTER      CLEAR     79  65  62 CALM      29.91R
COATESVILLE    PTCLDY    75  68  78 CALM      29.92S
POTTSTOWN      MOCLDY    74  70  87 N5        29.92S
BLUE BELL      MOCLDY    77  72  83 CALM      29.89S
DOYLESTOWN     CLOUDY    77  67  71 CALM      29.90R
WILLOW GROVE   NOT AVBL
NORTH PHILA    MOCLDY    82  65  56 CALM      29.90S
PHILADELPHIA   MOCLDY    81  70  69 CALM      29.89S
$$



USA.gov is the U.S. government's official web portal to all federal, state and local government web resources and services.